| time (UTC) | temp C | wind direction | speed KPH | gust KPH | rain 1hr cm | rain 24hr cm | rain mn cm | humidity % | barometer mb |
| 20260504044548 | 9 | 41 | 19.3 | 29.0 | 0.00 | 0.00 | 0.00 | 45 | 1013.2 |
| 20260504043054 | 10 | 32 | 29.0 | 40.2 | 0.00 | 0.00 | 0.00 | 44 | 1013.1 |
| 20260504041545 | 10 | 37 | 29.0 | 43.5 | 0.00 | 0.00 | 0.00 | 43 | 1012.7 |
| 20260504040051 | 11 | 22 | 20.9 | 29.0 | 0.00 | 0.00 | 0.00 | 45 | 1011.9 |
| 20260504034547 | 11 | 40 | 11.3 | 14.5 | 0.00 | 0.00 | 0.00 | 44 | 1011.3 |
| 20260504033051 | 11 | 54 | 9.7 | 14.5 | 0.00 | 0.00 | 0.00 | 44 | 1011.0 |
| 20260504031551 | 11 | 53 | 11.3 | 16.1 | 0.00 | 0.00 | 0.00 | 44 | 1010.9 |
| 20260504030054 | 12 | 49 | 12.9 | 19.3 | 0.00 | 0.00 | 0.00 | 43 | 1010.7 |
| 20260504024604 | 12 | 48 | 12.9 | 20.9 | 0.00 | 0.00 | 0.00 | 43 | 1010.5 |
| 20260504023057 | 13 | 53 | 12.9 | 24.1 | 0.00 | 0.00 | 0.00 | 41 | 1010.3 |
| 20260504021554 | 14 | 43 | 17.7 | 32.2 | 0.00 | 0.00 | 0.00 | 39 | 1010.0 |
| 20260504020050 | 15 | 34 | 17.7 | 30.6 | 0.00 | 0.00 | 0.00 | 35 | 1009.9 |
| 20260504014548 | 17 | 41 | 17.7 | 25.7 | 0.00 | 0.00 | 0.00 | 30 | 1009.7 |
| 20260504013054 | 18 | 8 | 14.5 | 24.1 | 0.00 | 0.00 | 0.00 | 27 | 1009.7 |
| 20260504011550 | 19 | 322 | 9.7 | 16.1 | 0.00 | 0.00 | 0.00 | 23 | 1009.7 |
| 20260504010047 | 20 | 307 | 6.4 | 17.7 | 0.00 | 0.00 | 0.00 | 21 | 1009.7 |
| 20260504004547 | 20 | 329 | 8.0 | 29.0 | 0.00 | 0.00 | 0.00 | 21 | 1009.8 |
| 20260504003053 | 20 | 314 | 9.7 | 24.1 | 0.00 | 0.00 | 0.00 | 20 | 1010.0 |
| 20260504001552 | 20 | 324 | 11.3 | 19.3 | 0.00 | 0.00 | 0.00 | 20 | 1010.1 |
| 20260504000116 | 20 | 345 | 14.5 | 27.4 | 0.00 | 0.00 | 0.00 | 20 | 1010.2 |
| 20260503234557 | 20 | 337 | 14.5 | 27.4 | 0.00 | 0.00 | 0.00 | 21 | 1010.1 |
| 20260503233047 | 20 | 307 | 11.3 | 25.7 | 0.00 | 0.00 | 0.00 | 21 | 1010.3 |
| 20260503231548 | 20 | 309 | 9.7 | 19.3 | 0.00 | 0.00 | 0.00 | 21 | 1010.5 |
| 20260503230051 | 20 | 299 | 14.5 | 24.1 | 0.00 | 0.00 | 0.00 | 21 | 1010.7 |
| 20260503224552 | 20 | 315 | 8.0 | 24.1 | 0.00 | 0.00 | 0.00 | 21 | 1010.8 |
| 20260503223051 | 20 | 277 | 14.5 | 24.1 | 0.00 | 0.00 | 0.00 | 20 | 1010.7 |
| 20260503221558 | 20 | 302 | 12.9 | 22.5 | 0.00 | 0.00 | 0.00 | 22 | 1011.1 |
| 20260503220057 | 20 | 320 | 11.3 | 24.1 | 0.00 | 0.00 | 0.00 | 21 | 1011.3 |
| 20260503214553 | 20 | 262 | 9.7 | 25.7 | 0.00 | 0.00 | 0.00 | 22 | 1011.5 |
| 20260503213052 | 19 | 13 | 9.7 | 27.4 | 0.00 | 0.00 | 0.00 | 23 | 1011.8 |
| 20260503211601 | 19 | 288 | 14.5 | 29.0 | 0.00 | 0.00 | 0.00 | 23 | 1012.0 |
| 20260503210052 | 19 | 316 | 14.5 | 33.8 | 0.00 | 0.00 | 0.00 | 24 | 1012.1 |
| 20260503204551 | 19 | 311 | 12.9 | 25.7 | 0.00 | 0.00 | 0.00 | 23 | 1012.2 |
| 20260503203107 | 19 | 318 | 11.3 | 24.1 | 0.00 | 0.00 | 0.00 | 24 | 1012.3 |
| 20260503201554 | 19 | 310 | 9.7 | 25.7 | 0.00 | 0.00 | 0.00 | 24 | 1012.3 |
| 20260503200048 | 18 | 294 | 9.7 | 20.9 | 0.00 | 0.00 | 0.00 | 23 | 1012.5 |
| 20260503194555 | 18 | 290 | 9.7 | 25.7 | 0.00 | 0.00 | 0.00 | 24 | 1012.7 |
| 20260503193053 | 18 | 297 | 17.7 | 30.6 | 0.00 | 0.00 | 0.00 | 24 | 1013.0 |
| 20260503191551 | 18 | 343 | 11.3 | 27.4 | 0.00 | 0.00 | 0.00 | 25 | 1013.4 |
| 20260503190050 | 18 | 311 | 11.3 | 25.7 | 0.00 | 0.00 | 0.00 | 26 | 1013.4 |
| 20260503184550 | 18 | 290 | 8.0 | 16.1 | 0.00 | 0.00 | 0.00 | 27 | 1013.4 |
| 20260503183052 | 17 | 308 | 9.7 | 20.9 | 0.00 | 0.00 | 0.00 | 29 | 1013.7 |
| 20260503181604 | 16 | 297 | 4.8 | 19.3 | 0.00 | 0.00 | 0.00 | 30 | 1013.8 |
| 20260503180052 | 17 | 302 | 8.0 | 22.5 | 0.00 | 0.00 | 0.00 | 28 | 1013.9 |
| 20260503174552 | 17 | 290 | 8.0 | 17.7 | 0.00 | 0.00 | 0.00 | 29 | 1014.1 |
| 20260503173057 | 16 | 303 | 8.0 | 16.1 | 0.00 | 0.00 | 0.00 | 31 | 1014.5 |
| 20260503171549 | 16 | 312 | 8.0 | 19.3 | 0.00 | 0.00 | 0.00 | 32 | 1014.4 |
| 20260503081549 | 8 | 150 | 6.4 | 12.9 | 0.00 | 0.00 | 0.00 | 66 | 1016.1 |